Location: Arroyo Grande
(40.2671°N, 4.2512°W)
Time: 01:16:27
(UTC+00:00)

Cosmos 2278 Rocket - Pass Details

Date: 26 September 2023
Orbit: 842 x 844 km, 71.0° (Epoch: 03 December)

Event Time Altitude Azimuth Distance (km) Brightness Sun altitude
Rises 22:11:38 0° 317° (NW) 3,408 6.2 -43.0°
Reaches altitude 10° 22:15:12 10° 294° (WNW) 2,467 5.1 -43.5°
Enters shadow 22:16:06 12° 286° (WNW) 2,309 4.9 -43.6°
